Flag for U.S.A. Weather past 2 weeks in Philadelphia, Pennsylvania, U.S.A.

Now
85 °F

Broken clouds.


Feels Like: 85 °F
Forecast: 71 / 84 °F
Wind: 20 mph from West

Location: Philadelphia International Airport

Current Time: Jul 1, 2015 at 6:22:51 PM

Latest Report: Jul 1, 2015 at 5:54 PM


Visibility: 10 mi

Pressure: 29.81 "Hg

Humidity: 43%

Dew point: 60 °F

Location of PhiladelphiaLocation

Historic Weather in Philadelphia — Graph

°F

Philadelphia temperature yesterday

Maximum temperature yesterday: 85 °F (at 2:54 PM)
Minimum temperature yesterday: 68 °F (at 4:54 AM)
Average temperature yesterday: 76 °F

Past Weeks' High & Low Weather Summary

 TemperatureHumidityPressure
High94 °F (Jun 23, 2:54 PM)93% (Jun 18, 4:54 AM)30.12 "Hg (Jun 18, 4:54 AM)
Low63 °F (Jun 27, 7:54 PM)35% (Jun 22, 11:54 AM)29.63 "Hg (Jun 28, 4:54 AM)
Average76 °F66%29.93 "Hg
* Reported Jun 16 4:54 PM — Jul 1 4:54 PM, Philadelphia, Weather by CustomWeather, © 2015

Note: Actual official high and low records may vary slightly from our data, if they occured in-between our weather recording intervals... More about our weather records

Advertising

Philadelphia weather history for previous 24 hours

 ConditionsComfort  
Time TempWeatherWind HumidityBarometerVisibility
4:54 PM
Wed, Jul 1
86 °FScattered clouds.22 mph42%29.81 "Hg10 mi
3:54 PM84 °FScattered clouds.16 mph51%29.81 "Hg10 mi
2:54 PM85 °FScattered clouds.15 mph50%29.80 "Hg10 mi
1:54 PM84 °FScattered clouds.14 mph51%29.82 "Hg10 mi
12:54 PM83 °FPassing clouds.13 mph48%29.83 "Hg10 mi
11:54 AM80 °FPassing clouds.12 mph56%29.83 "Hg10 mi
10:54 AM78 °FPassing clouds.9 mph62%29.83 "Hg10 mi
9:54 AM75 °FPassing clouds.8 mph71%29.83 "Hg9 mi
8:54 AM73 °FScattered clouds.10 mph79%29.83 "Hg10 mi
7:54 AM71 °FPartly sunny.9 mph84%29.82 "Hg10 mi
6:54 AM70 °FBroken clouds.8 mph87%29.80 "Hg10 mi
5:54 AM70 °FMostly cloudy.9 mph84%29.78 "Hg10 mi
4:54 AM70 °FLight rain. Mostly cloudy.7 mph87%29.78 "Hg10 mi
3:54 AM71 °FLight rain. Mostly cloudy.7 mph81%29.80 "Hg10 mi
3:03 AM72 °FLight rain. Overcast.18 mph81%29.81 "Hg8 mi
1:54 AM74 °FMostly cloudy.No wind91%29.78 "Hg10 mi
12:54 AM74 °FPartly cloudy.5 mph91%29.80 "Hg10 mi
11:54 PM
Tue, Jun 30
74 °FPassing clouds.No wind88%29.82 "Hg10 mi
11:02 PM75 °FPartly cloudy.3 mph85%29.83 "Hg10 mi
10:54 PM75 °FThunderstorms. Partly cloudy.3 mph85%29.83 "Hg10 mi
9:54 PM74 °FPartly cloudy.6 mph85%29.84 "Hg10 mi
9:04 PM76 °FThunderstorms. Mostly cloudy.6 mph82%29.84 "Hg10 mi
7:54 PM75 °FThunderstorms. Mostly cloudy.3 mph85%29.84 "Hg7 mi
6:54 PM76 °FBroken clouds.12 mph80%29.83 "Hg10 mi
Weather by CustomWeather, © 2015

See weather overviewHow to use our weather pages